Location: Northam
(31.6525°S, 116.6655°E)
Time: 18:33:11
(UTC+08:00)

Vanguard 3 - Visible Passes

Search period start: 15 June 2021 00:00
Search period end: 25 June 2021 00:00
Orbit: 508 x 3261 km, 33.3° (Epoch: 14 June)

Date Brightness Start Highest point End Pass type
(mag) Time Alt. Az. Time Alt. Az. Time Alt. Az.
15 Jun 10.2 18:27:21 10° NW 18:46:24 61° NNE 18:58:24 26° E visible
15 Jun 9.6 20:43:04 10° WNW 21:02:57 87° WNW 21:02:57 87° WNW visible
15 Jun 10.9 23:01:52 10° W 23:07:30 24° W 23:07:30 24° W visible
16 Jun 10.6 17:12:33 10° NNW 17:29:30 46° NE 17:46:57 10° ESE visible
16 Jun 9.8 19:25:52 10° WNW 19:45:59 79° NNE 19:52:55 49° E visible
16 Jun 10.1 21:43:27 10° W 21:57:28 54° W 21:57:28 54° W visible
17 Jun 10.2 18:09:49 10° NW 18:28:37 66° NNE 18:42:52 21° ESE visible
17 Jun 9.6 20:25:29 10° WNW 20:45:56 88° S 20:47:25 80° ESE visible
17 Jun 10.7 22:44:07 10° W 22:51:57 30° W 22:51:57 30° W visible
18 Jun 9.9 19:08:25 10° WNW 19:28:20 83° NNE 19:37:20 41° E visible
18 Jun 9.9 21:25:49 10° W 21:41:53 64° WSW 21:41:53 64° WSW visible
18 Jun 11.3 23:44:39 10° WSW 23:46:25 14° WSW 23:46:25 14° WSW visible
19 Jun 10.2 17:52:28 10° NW 18:10:48 70° NNE 18:27:15 17° ESE visible
19 Jun 9.6 20:08:02 10° W 20:28:28 86° S 20:31:48 69° ESE visible
19 Jun 10.5 22:26:21 10° W 22:36:20 37° WSW 22:36:20 37° WSW visible
20 Jun 10.0 18:51:08 10° WNW 19:10:39 86° NNE 19:21:42 34° ESE visible
20 Jun 9.8 21:08:15 10° W 21:26:14 74° WSW 21:26:14 74° WSW visible
20 Jun 11.2 23:26:51 10° WSW 23:30:47 19° WSW 23:30:47 19° WSW visible
21 Jun 10.2 17:35:19 10° WNW 17:53:00 74° NNE 18:11:36 12° ESE visible
21 Jun 9.7 19:50:41 10° W 20:10:57 85° S 20:16:08 60° ESE visible
21 Jun 10.4 22:08:38 10° WSW 22:20:41 45° W 22:20:41 45° W visible
22 Jun 10.1 18:34:00 10° WNW 18:52:59 89° NNE 19:06:03 28° E visible
22 Jun 9.7 20:50:45 10° W 21:10:35 84° SW 21:10:35 84° SW visible
22 Jun 11.0 23:09:04 10° WSW 23:15:08 25° WSW 23:15:08 25° WSW visible
23 Jun 10.2 17:18:20 10° WNW 17:35:15 78° NNE 17:55:14 10° ESE visible
23 Jun 9.8 19:33:28 10° W 19:53:23 85° S 20:00:30 51° E visible
23 Jun 10.2 21:50:58 10° WSW 22:05:03 54° W 22:05:03 54° W visible
24 Jun 10.1 18:17:00 10° WNW 18:35:19 89° S 18:50:26 23° E visible
24 Jun 9.7 20:33:21 10° W 20:53:47 88° S 20:54:59 82° E visible
24 Jun 10.8 22:51:18 10° WSW 22:59:32 31° W 22:59:32 31° W visible
